User: anonymous
Location: Reading
(52.0000°N, 0.0000°E)
Time: 20:26:42
(UTC+01:00)
Language:

Iridium 41 - Orbit

View from above orbital plane
View from above orbital plane
View from above satellite
View from above satellite

Ground track
Ground track

The orbit data is extracted from the following two-line orbital elements,

1 25040U 97069B   14259.38315979  .00000197  00000-0  63278-4 0  9377
2 25040 086.3921 081.9441 0002075 101.2477 307.1098 14.34220968882291
Epoch (UTC): 16 September 2014 09:11:45
Eccentricity: 0.0002075
inclination: 86.3921°
perigee height: 776 km
apogee height: 779 km
right ascension of ascending node: 81.9441°
argument of perigee: 101.2477°
revolutions per day: 14.34220968
mean anomaly at epoch: 307.1098°
orbit number at epoch: 88229

The dashed part of the orbit path shows where the satellite is in the earth's shadow,  

DLR